Location: Bernúy-Salinero
(40.6677°N, 4.5967°W)
Time: 22:32:14
(UTC+00:00)

Daily predictions for brighter satellites

Satellite Brightness Start Highest point End
(mag) Time Altitude Azimuth Time Altitude Azimuth Time Altitude Azimuth
Cosmos 1953 2.9 17:41:44 10° NNE 17:45:04 30° ENE 17:48:22 10° SE
NOSS 0 Rocket 4.0 17:40:14 10° SSW 17:46:22 83° ESE 17:52:33 10° NNE
CZ-2D R/B 3.6 17:42:25 10° SSE 17:46:40 85° W 17:50:56 10° NNW
Lacrosse 5 2.9 17:42:14 10° NW 17:47:10 51° SW 17:52:06 10° SSE
SL-19 R/B 4.5 17:41:35 10° SSE 17:47:39 89° E 17:53:28 10° NNW
SKYMED 2 4.3 17:48:01 10° NNE 17:51:56 32° E 17:55:51 10° SSE
ATLAS 2AS CENTAUR R/B 3.9 17:48:30 10° NNW 17:53:31 21° NNE 17:58:26 10° E
COSMOS 2428 3.5 17:48:14 10° SW 17:53:46 52° WNW 17:59:19 10° NNE
ACS3 Solar Sail 2.6 17:49:13 10° SE 17:54:39 30° ENE 18:00:05 10° N
IGS 5A 3.4 17:51:29 10° SSE 17:55:25 58° ENE 17:59:23 10° N
USA 267 4.0 17:50:56 10° SSE 17:57:21 58° SW 18:03:48 10° NW
Cosmos 990 Rocket 4.0 17:54:21 10° NNW 17:59:36 80° ENE 18:04:50 10° SSE
Cosmos 1174 4.1 17:57:23 10° NNW 18:01:04 47° ENE 18:05:32 10° SE
Dummy Sat-02 4.5 17:58:07 10° S 18:01:45 84° E 18:05:23 10° N
AQUARIUS 4.1 17:57:55 10° SSE 18:02:19 83° ENE 18:06:47 10° N
Cosmos 1634 Rocket 4.3 17:57:11 10° N 18:03:29 74° W 18:09:44 10° S
DNEPR-1 R/B 4.1 18:00:32 10° NNW 18:04:59 38° NE 18:08:57 10° ESE
Delta 2 Rocket 4.1 18:05:59 10° SW 18:08:52 29° S 18:11:40 10° ESE
Okean 3 3.4 18:06:44 10° S 18:10:48 87° W 18:14:56 10° N
Meteor 1-31 Rocket 3.6 18:08:02 10° SE 18:10:59 25° ENE 18:13:57 10° NNE
Cosmos 1707 Rocket 3.5 18:07:09 10° S 18:11:35 85° E 18:16:02 10° N
Meteor 1-16 Rocket 4.2 18:06:13 10° N 18:11:44 90° SE 18:17:24 10° S
Okean 2 3.2 18:10:42 10° S 18:14:37 81° E 18:18:35 10° N
EO 1 Delta rocket 4.1 18:11:20 10° NNE 18:15:49 46° E 18:20:23 10° S
Cosmos 2142 Rocket 4.5 18:12:18 10° N 18:18:34 80° E 18:24:53 10° S
CZ-4 R/B 4.4 18:14:46 10° SSE 18:18:42 58° ENE 18:22:39 10° N
Cosmos 1937 Rocket 4.0 18:16:02 10° N 18:20:47 36° ENE 18:25:32 10° SE
BREEZE-M DEB (TANK) 4.4 18:03:48 10° WSW 18:24:47 74° NNW 18:28:55 16° NE
Cosmos 1825 4.0 18:23:03 10° SE 18:23:11 11° SE 18:23:11 11° SE
Cosmos 1862 Rocket 3.9 18:25:11 10° SSW 18:29:30 67° W 18:33:54 10° N
Cosmos 1943 Rocket 2.1 18:23:59 10° NNW 18:29:40 87° ENE 18:35:16 10° SSE
RESURS DK-1 2.2 18:26:13 10° NNW 18:30:14 74° ENE 18:34:15 10° SSE
Cosmos 2237 Rocket 2.6 18:25:01 10° SW 18:30:39 64° WNW 18:36:21 10° NNE
BlueWalker 3 3.7 18:31:01 10° NNW 18:33:23 16° NNE 18:33:53 16° NNE
CZ-4B R/B 3.6 18:33:12 10° SSE 18:36:44 51° ENE 18:40:12 10° N
ISS -2.1 18:34:27 10° W 18:37:21 26° NNW 18:39:01 18° NNE
NOAA 6 4.0 18:33:35 10° SSE 18:38:35 60° ENE 18:43:37 10° N
COSMO-SKYMED 1 2.8 18:35:47 10° N 18:40:08 72° WNW 18:44:26 10° SSW
Cosmos 2344 4.5 18:33:54 10° WSW 18:41:03 41° NW 18:47:54 10° NNE
Cosmos 2278 Rocket 3.0 18:38:29 10° NNW 18:44:00 54° WSW 18:49:29 10° S
YAOGAN 1 2.4 18:43:04 10° SSE 18:47:16 62° ENE 18:51:30 10° N
CZ-4C R/B 2.3 18:44:44 10° SW 18:48:53 56° NW 18:53:05 15° NNE
Nadezhda 4 Rocket 4.0 18:44:24 10° S 18:50:30 84° W 18:56:41 10° N
ATLAS 5 CENTAUR R/B 0.8 18:50:35 10° SW 18:53:42 74° NW 18:54:38 42° NNE
YAOGAN 11 4.0 18:51:31 21° NNE 18:54:11 58° ESE 18:58:24 10° S
Landsat 7 4.1 18:50:23 10° S 18:55:02 68° WSW 18:59:44 10° NNW
Cosmos 2195 Rocket 4.4 18:48:57 10° S 18:55:05 68° E 19:01:12 10° NNE
Meteor 1-24 Rocket 4.3 18:49:53 10° SSE 18:55:13 38° E 18:58:08 24° NE
Cosmos 1703 Rocket 3.4 18:53:50 10° S 18:58:16 76° E 19:02:12 13° NNE
SPOT 1/Viking Rocket 3.6 18:53:33 10° SSE 18:58:33 54° ENE 19:03:34 10° N
Resurs 1-3 3.5 18:58:52 10° SSE 19:03:04 55° ENE 19:07:18 10° N
Meteor 2-5 Rocket 4.0 19:00:26 10° SSE 19:05:48 43° E 19:07:38 34° NE
Cosmos 1703 3.4 19:05:08 10° SSW 19:08:37 60° W 19:10:32 24° N
Cosmos 841 Rocket 4.3 19:04:40 10° SW 19:09:46 51° WNW 19:14:55 10° N
Cosmos 1898 Rocket 4.2 19:07:39 10° NNW 19:12:49 55° WSW 19:17:58 10° S
Okean 1-7 4.5 19:09:40 10° SW 19:13:37 36° WNW 19:17:36 10° N
Cosmos 1656 Rocket 3.7 19:08:49 10° NNW 19:14:10 50° ENE 19:14:50 47° E
Cosmos 1900 4.4 19:11:24 10° S 19:15:59 51° ESE 19:15:59 51° ESE
Cosmos 1814 Rocket 4.0 19:14:39 10° S 19:19:48 57° ESE 19:20:11 56° E
SL-16 R/B 2.1 19:14:12 10° SSW 19:19:52 87° WNW 19:22:50 30° NNE
Cosmos 1437 Rocket 3.7 19:20:24 10° S 19:22:39 35° S 19:22:39 35° S
CBERS 1 LM4 rocket 4.3 19:32:04 32° SSE 19:34:30 84° ENE 19:39:45 10° NNW
Cosmos 1092 Rocket 4.1 19:30:22 10° SSW 19:36:30 73° W 19:42:44 10° N
Cosmos 1818 3.4 19:31:05 10° NNW 19:36:34 85° ENE 19:37:02 75° SE
ACS3 Solar Sail 2.9 19:31:51 10° SSW 19:37:55 45° W 19:44:02 10° NNW
Cosmos 2369 Rocket 3.0 19:35:15 10° NNW 19:38:45 36° N 19:38:45 36° N
ATLAS 2AS CENTAUR R/B 2.5 19:38:40 10° NNW 19:45:28 82° NE 19:46:36 64° SE
Cosmos 839 Rocket 4.1 19:44:22 10° SW 19:51:08 75° WNW 19:52:33 55° N
Cosmos 1867 4.3 19:51:24 10° SSW 19:55:00 43° SSW 19:55:00 43° SSW
Cosmos 2297 4.3 19:58:12 10° NNW 20:02:16 48° NNW 20:02:16 48° NNW
